Weather History for KPIT - August, 2013

Change the Weather History Date:

Tuesday, August 13, 2013

  Actual Average Record
Temperature  
Mean Temperature 69 °F 72 °F  
Max Temperature 80 °F 82 °F 95 °F (1944)
Min Temperature 57 °F 62 °F 48 °F (1982)
Degree Days  
Heating Degree Days 0 0  
Month to date heating degree days 1 0  
Since 1 June heating degree days 18 42  
Since 1 July heating degree days 2 4  
Cooling Degree Days 4 7  
Month to date cooling degree days 71 95  
Year to date cooling degree days 596 538  
Since 1 June cooling degree days 492 486  
Growing Degree Days 20 (Base 50)    
Moisture  
Dew Point 60 °F    
Average Humidity 66    
Maximum Humidity 84    
Minimum Humidity 48    
Precipitation  
Precipitation T in 0.11 in 2.31 in (1896)
Month to date precipitation 0.52 1.53  
Year to date precipitation 24.50 24.76  
Snow  
Snow 0.00 in 0.00 in 0.00 in (2002)
Month to date snowfall 0.0 0.0  
Since 1 July snowfall 0.0 0.0  
Snow Depth 0.00 in    
Sea Level Pressure  
Sea Level Pressure 29.87 in    
Wind  
Wind Speed 11 mph (West)    
Max Wind Speed 24 mph    
Max Gust Speed 30 mph    
Visibility 9 miles    
Events      
T = Trace of Precipitation, MM = Missing Value Source: NWS Daily Summary

Daily Weather History Graph

Daily Weather History Graph

Search for Another Location

Airport or City:

Trip Planner

Search our weather history database for the weather conditions in past years. The results will help you decide how hot, cold, wet, or windy it might be!

Date:

Astronomy

Aug. 13, 2013 Rise Set
Actual Time 6:29 AM EDT 8:20 PM EDT
Civil Twilight 6:00 AM EDT 8:50 PM EDT
Nautical Twilight 5:24 AM EDT 9:25 PM EDT
Astronomical Twilight 4:46 AM EDT 10:04 PM EDT
Moon 1:24 PM EDT (8/13) 11:52 PM EDT (8/13)
Length of Visible Light 14h 49m
Length of Day
13h 50m
Waxing Crescent, 41% of the Moon is Illuminated
Aug 13
Waxing Crescent
Aug 14
First Quarter
Aug 20
Full
Aug 28
Last Quarter
Sep 5
New

Hourly Weather History & Observations

Time (EDT) Temp. Dew Point Humidity Pressure Visibility Wind Dir Wind Speed Gust Speed Precip Events Conditions
1:51 AM 73.0 °F 64.9 °F 76% 29.84 in 9.0 mi SSW 3.5 mph - N/A   Overcast
2:51 AM 72.0 °F 66.0 °F 81% 29.84 in 8.0 mi SW 5.8 mph - N/A   Overcast
3:51 AM 72.0 °F 66.0 °F 81% 29.84 in 7.0 mi SW 4.6 mph - N/A   Overcast
4:29 AM 71.6 °F 66.2 °F 83% 29.83 in 7.0 mi SSW 6.9 mph - N/A   Overcast
4:51 AM 71.1 °F 66.0 °F 84% 29.83 in 8.0 mi SSW 5.8 mph - N/A   Overcast
5:07 AM 71.6 °F 64.4 °F 78% 29.83 in 8.0 mi SSW 6.9 mph - N/A   Overcast
5:45 AM 69.8 °F 64.4 °F 83% 29.82 in 8.0 mi SSW 6.9 mph - N/A   Overcast
5:51 AM 71.1 °F 66.0 °F 84% 29.81 in 7.0 mi SSW 6.9 mph - N/A   Overcast
6:51 AM 70.0 °F 64.9 °F 84% 29.82 in 7.0 mi SW 8.1 mph - N/A   Mostly Cloudy
7:15 AM 69.8 °F 64.4 °F 83% 29.83 in 6.0 mi SW 8.1 mph - N/A   Scattered Clouds
7:51 AM 70.0 °F 64.9 °F 84% 29.83 in 6.0 mi WSW 5.8 mph - N/A   Haze
8:31 AM 69.8 °F 66.2 °F 88% 29.84 in 7.0 mi SW 6.9 mph - N/A   Mostly Cloudy
8:51 AM 71.1 °F 66.0 °F 84% 29.83 in 8.0 mi WSW 8.1 mph - N/A   Mostly Cloudy
9:18 AM 73.4 °F 66.2 °F 78% 29.84 in 9.0 mi WSW 8.1 mph - N/A   Mostly Cloudy
9:51 AM 73.9 °F 66.0 °F 76% 29.84 in 8.0 mi NW 10.4 mph 16.1 mph 0.00 in   Mostly Cloudy
10:35 AM 73.4 °F 64.4 °F 73% 29.85 in 10.0 mi NW 12.7 mph - N/A   Mostly Cloudy
10:51 AM 75.0 °F 63.0 °F 66% 29.86 in 10.0 mi WNW 16.1 mph - N/A   Mostly Cloudy
11:51 AM 75.9 °F 60.1 °F 58% 29.87 in 10.0 mi NNW 13.8 mph - N/A   Mostly Cloudy
12:51 PM 79.0 °F 60.1 °F 52% 29.86 in 10.0 mi NW 9.2 mph - N/A   Scattered Clouds
1:51 PM 75.0 °F 60.1 °F 60% 29.86 in 10.0 mi NNW 12.7 mph - 0.00 in   Mostly Cloudy
2:51 PM 79.0 °F 57.9 °F 48% 29.86 in 10.0 mi NNW 16.1 mph 24.2 mph N/A   Scattered Clouds
3:51 PM 77.0 °F 57.0 °F 50% 29.86 in 10.0 mi NW 16.1 mph - N/A   Scattered Clouds
4:51 PM 75.0 °F 57.0 °F 53% 29.87 in 10.0 mi NW 20.7 mph 25.3 mph N/A   Mostly Cloudy
5:51 PM 72.0 °F 55.9 °F 57% 29.89 in 10.0 mi NNW 19.6 mph - N/A   Mostly Cloudy
6:51 PM 69.1 °F 54.0 °F 58% 29.91 in 10.0 mi NNW 16.1 mph 23.0 mph N/A   Overcast
7:51 PM 66.9 °F 51.1 °F 57% 29.93 in 10.0 mi NNW 11.5 mph - N/A   Mostly Cloudy
8:51 PM 64.0 °F 48.9 °F 58% 29.96 in 10.0 mi NNW 16.1 mph 20.7 mph N/A   Mostly Cloudy
9:51 PM 62.1 °F 46.9 °F 58% 29.99 in 10.0 mi North 12.7 mph - N/A   Mostly Cloudy
10:51 PM 60.1 °F 46.9 °F 62% 30.00 in 10.0 mi North 9.2 mph - N/A   Scattered Clouds
11:51 PM 59.0 °F 46.9 °F 64% 30.01 in 10.0 mi NNW 5.8 mph - N/A   Partly Cloudy